Regional Weather Roundup
Issued by NWS

Home | Current Version | Previous Version | Text Only | Print | Product List | Glossary Off
Versions: 1 2 3 4 5 6 7 8 9 10 11 12 13 14 15 16 17 18 19 20 21 22 23 24 25 26 27 28 29 30 31 32 33 34 35 36 37 38 39 40 41 42 43 44 45 46 47 48 49 50

618
ASUS43 KMPX 231010
RWRMN
WEATHER ROUNDUP FOR MINNESOTA
NATIONAL WEATHER SERVICE TWIN CITIES/CHANHASSEN MN
500 AM CDT SUN JUL 23 2017


NOTE: "FAIR" INDICATES FEW OR NO CLOUDS BELOW 12,000 FEET WITH NO
SIGNIFICANT WEATHER AND/OR OBSTRUCTIONS TO VISIBILITY. N/A MEANS
CURRENT SKY AND/OR WEATHER CONDITIONS ARE NOT AVAILABLE.

MNZ060>063-068>070-231100-
   Twin Cities Metro

CITY           SKY/WX    TMP DP  RH WIND       PRES   REMARKS
TWIN CITIES    MOCLDY    71  55  56 NW9       29.85R
ST PAUL        CLOUDY    70  57  63 NW7       29.84R
CRYSTAL        CLOUDY    69  54  58 NW8       29.84R
BLAINE         CLEAR     68  57  68 NW7       29.84S
LAKEVILLE      MOCLDY    66  59  77 NW5       29.85R
EDEN PRAIRIE   MOCLDY    71  56  58 NW8       29.84R
SOUTH ST PAUL  CLOUDY    71  55  55 NW6       29.84R
LAKE ELMO      MOCLDY    68  57  68 NW5       29.85S
$$
MNZ001>005-007-008-013>017-022>024-027-028-231100-
   Northwest Minnesota

CITY           SKY/WX    TMP DP  RH WIND       PRES   REMARKS
BEMIDJI        CLOUDY    60  58  91 NW12      29.89R
HALLOCK        MOCLDY    61  59  94 N8        29.93S
ROSEAU           N/A     63  57  82 NW6       29.92R
WARROAD        CLOUDY    61  57  88 NW3       29.91S
THIEF RVR FALL MOCLDY    61  59  94 N10       29.92R
CROOKSTON      CLOUDY    61  61 100 N8        29.92S
DETROIT LAKES  CLOUDY    61  57  88 NW7       29.93R
MOORHEAD       MOCLDY    59  57  94 NW3       29.93S
PARK RAPIDS    CLOUDY    61  58  90 NW9       29.89R
MAHNOMEN       PTSUNNY   58  58  97 NW6       29.92R
$$
MNZ006-009>011-018-025>026-231100-
   North Central Minnesota

CITY           SKY/WX    TMP DP  RH WIND       PRES   REMARKS
BAUDETTE       CLOUDY    60  60 100 N6        29.89R
FLAG ISLAND    PTCLDY    64  61  88 NE7       29.91R
INTL FALLS     CLOUDY    60  57  89 NE6       29.87R
WASKISH        CLOUDY    61  57  88 N6        29.89R
BIG FORK       CLOUDY    59  57  94 CALM      29.86R
LONGVILLE      CLOUDY    63  57  82 W3        29.87R
GRAND RAPIDS   MOCLDY    61  57  88 NW7       29.88R
CRANE LAKE     MOCLDY    57  55  94 CALM      29.88R
ORR            CLOUDY    59  55  88 CALM      29.84R
COOK           MOCLDY    59  57  94 CALM      29.86R
WALKER         CLOUDY    59  57  94 NW5       29.88S
$$
MNZ012-019>021-037-231100-
   Northeast Minnesota

CITY           SKY/WX    TMP DP  RH WIND       PRES   REMARKS
DULUTH         FOG       53  53 100 CALM      29.83R VSB 1/2
ELY            CLOUDY    59  57  94 E7        29.86R
HIBBING        MOCLDY    58  58 100 N7        29.85R
EVELETH        CLOUDY    60  60  98 N6        29.86R
DULUTH HARBOR  CLOUDY    57  55  94 CALM      29.84S
TWO HARBORS    HAZE      57  54  88 NE3       29.84R VSB 3/4
SILVER BAY     CLOUDY    55  55 100 CALM      29.84S
GRAND MARAIS     N/A     56  54  93 CALM      29.84R
G MARAIS ARPRT CLOUDY    54  52  94 N6        29.87R FOG
$$
MNZ029>031-032-039>041-046>048-054>057-064-231100-
   West Central Minnesota

CITY           SKY/WX    TMP DP  RH WIND       PRES   REMARKS
FERGUS FALLS   CLEAR     57  57 100 NW7       29.93R
WHEATON        CLEAR     63  57  82 NW9       29.95S
MORRIS         CLEAR     61  57  88 NW8       29.91S
ALEXANDRIA     CLEAR     62  58  86 NW8       29.91S
ELBOW LAKE     FAIR      60  58  96 W10       29.92S
WADENA         CLOUDY    61  57  88 NW5       29.90R
GLENWOOD       CLEAR     61  57  88 NW8       29.91S
APPLETON       CLEAR     63  57  82 NW6       29.92R
BENSON         CLEAR     59  55  88 N5        29.92S
ORTONVILLE     CLEAR     64  59  82 NW6       29.93S
MADISON        CLEAR     64  64 100 W7        29.93R
WILLMAR        FAIR      63  61  94 NW6       29.91R
$$
MNZ033>034-036-042>043-049>051-058-059-231100-
   Central Minnesota

CITY           SKY/WX    TMP DP  RH WIND       PRES   REMARKS
ST CLOUD       CLEAR     61  57  87 NW7       29.87R
SAUK CENTRE    FAIR      59  56  91 W3        29.89S
PAYNESVILLE    CLEAR     59  57  91 W3        29.90R
AITKIN         MOCLDY    57  55  94 CALM      29.85R
PINE RIVER     CLOUDY    61  57  88 W3        29.91S
BRAINERD       CLOUDY    63  57  81 NW3       29.87S
STAPLES        CLOUDY    61  57  88 NW8       29.89R
LONG PRAIRIE   FAIR      59  55  88 W6        29.89F
LITTLE FALLS   CLEAR     59  54  82 CALM      29.88S
LITCHFIELD     CLEAR     64  59  82 NW6       29.89S
BUFFALO        MOCLDY    67  56  68 NW7       29.87R
MAPLE LAKE     PTCLDY    65  58  79 NW5       29.88R
HUTCHINSON     PTCLDY    66  61  84 NW6       29.89R
$$
MNZ037-044-045-052-053-231100-
   East Central Minnesota

CITY           SKY/WX    TMP DP  RH WIND       PRES   REMARKS
PRINCETON      CLEAR     63  57  82 NW5       29.86S
MORA           CLEAR     57  54  88 CALM      29.87R
CAMBRIDGE      CLEAR     64  54  68 NW3       29.84R
RUSH CITY      PTCLDY    62  56  82 NW3       29.85R
MOOSE LAKE     CLEAR     54  52  94 CALM      29.83S FOG
HINCKLEY       FAIR      61  57  88 NW3       29.84S
CLOQUET        FOG       54  52  94 CALM      29.84R VSB 3/4
MCGREGOR       CLOUDY    61  55  82 NW6       29.86R
$$
MNZ071>073-080-081-089-090-097-098-231100-
   Southwest Minnesota

CITY           SKY/WX    TMP DP  RH WIND       PRES   REMARKS
MONTEVIDEO     CLEAR     61  54  77 NW5       29.92R
GRANITE FALLS  CLEAR     62  60  93 W6        29.93S
CANBY          PTCLDY    61  58  90 CALM      29.95S
MARSHALL       CLEAR     62  60  93 NW8       29.93S
REDWOOD FALLS  PTCLDY    65  59  81 NW8       29.90R
OLIVIA         CLEAR     63  59  88 NW3       29.89R
PIPESTONE      CLEAR     64  57  77 N5        29.96R
WINDOM         CLEAR     64  59  82 NW10      29.92R
WORTHINGTON    CLEAR     64  59  83 NW9       29.94R
JACKSON        CLEAR     64  59  82 NW12      29.91S
SLAYTON        HVY RAIN  63  53  70 NW9       29.95R
$$
MNZ065>067-074>077-082>085-091>093-231100-
   South Central Minnesota

CITY           SKY/WX    TMP DP  RH WIND       PRES   REMARKS
MANKATO        PTCLDY    66  63  90 N7        29.86S
NEW ULM        PTCLDY    66  59  77 N6        29.88R
ST JAMES       CLEAR     64  63  94 NW7       29.89R
FAIRMONT       CLEAR     68  62  81 NW13      29.88R
GLENCOE        MOCLDY    67  64  89 NW5       29.87R
FARIBAULT      PTCLDY    64  63  94 CALM      29.86R
OWATONNA       PTCLDY    66  64  94 CALM      29.86R FOG
WASECA         PTCLDY    63  61  94 N6        29.87S
ALBERT LEA     PTCLDY    70  66  88 NW3       29.87R
$$
MNZ078>079-086>088-094>096-231100-
   Southeast Minnesota

CITY           SKY/WX    TMP DP  RH WIND       PRES   REMARKS
ROCHESTER      CLEAR     64  64 100 W7        29.86R
RED WING       MOCLDY    64  63  94 CALM      29.82S
STANTON        MOCLDY    64  62  93 CALM      29.84R
DODGE CENTER   PTCLDY    66  63  88 CALM      29.86S
WINONA         FOG       66  64  94 CALM      29.82R VSB 3/4
AUSTIN         CLEAR     64  63  94 N3        29.86R
PRESTON        MOCLDY    65  63  92 NW6       29.86R
$$
ABBREVIATIONS USED IN REMARKS
   TC - TEMPERATURES IN CELSIUS
  WCI - WIND CHILL INDEX
   HX - HEAT INDEX
  VSB - VISIBILITY
$$




USA.gov is the U.S. government's official web portal to all federal, state and local government web resources and services.